Weather History for Grand Rapids, MI

Change the Weather History Date:

Sunday, March 3, 2013

  Actual Average Record
Temperature  
Mean Temperature 25 °F 31 °F  
Max Temperature 32 °F 39 °F 72 °F (1983)
Min Temperature 17 °F 23 °F -9 °F (1943)
Degree Days  
Heating Degree Days 40 34  
Month to date heating degree days 120 103  
Since 1 July heating degree days 4605 4880  
Cooling Degree Days 0 0  
Month to date cooling degree days 0 0  
Year to date cooling degree days 0 0  
Moisture  
Dew Point 13 °F    
Average Humidity 62    
Maximum Humidity 80    
Minimum Humidity 43    
Precipitation  
Precipitation T in 0.07 in 1.32 in (1941)
Month to date precipitation T 0.22  
Year to date precipitation 7.06 4.10  
Snow  
Snow T in 0.40 in 5.00 in (2007)
Month to date snowfall T 1.2  
Since 1 July snowfall 57.6 66.0  
Snow Depth 3.00 in    
Sea Level Pressure  
Sea Level Pressure 30.09 in    
Wind  
Wind Speed 7 mph (NW)    
Max Wind Speed 16 mph    
Max Gust Speed 21 mph    
Visibility 10 miles    
Events      
T = Trace of Precipitation, MM = Missing Value Source: NWS Daily Summary

Daily Weather History Graph

Daily Weather History Graph

Search for Another Location

Airport:

Trip Planner

Search our weather history database for the weather conditions in past years. The results will help you decide how hot, cold, wet, or windy it might be!

Date:

Astronomy

Mar. 03, 2013 Rise Set
Actual Time 7:14 AM EST 6:34 PM EST
Civil Twilight 6:45 AM EST 7:02 PM EST
Nautical Twilight 6:13 AM EST 7:35 PM EST
Astronomical Twilight 5:40 AM EST 8:08 PM EST
Moon 12:21 AM EST (3/3) 10:19 AM EST (3/3)
Length of Visible Light 12h 16m
Length of Day
11h 20m
Waning Gibbous, 64% of the Moon is Illuminated
Mar 3
Waning Gibbous
Mar 4
Last Quarter
Mar 11
New
Mar 19
First Quarter
Mar 27
Full

Hourly Weather History & Observations

Time (EST) Temp. Windchill Dew Point Humidity Pressure Visibility Wind Dir Wind Speed Gust Speed Precip Events Conditions
12:53 AM 21.0 °F 16.2 °F 12.9 °F 71% 30.12 in 10.0 mi NNW 3.5 mph - N/A   Partly Cloudy
1:12 AM 21.2 °F 16.4 °F 12.2 °F 68% 30.08 in 10.0 mi NNW 3.5 mph - N/A   Mostly Cloudy
1:53 AM 21.0 °F 16.2 °F 12.9 °F 71% 30.12 in 10.0 mi NW 3.5 mph - N/A   Overcast
2:53 AM 21.9 °F 15.7 °F 14.0 °F 72% 30.10 in 10.0 mi West 4.6 mph - N/A   Overcast
3:53 AM 21.9 °F 14.5 °F 14.0 °F 72% 30.09 in 10.0 mi WNW 5.8 mph - N/A   Overcast
4:53 AM 21.9 °F 15.7 °F 14.0 °F 72% 30.09 in 10.0 mi WNW 4.6 mph - N/A   Overcast
5:32 AM 19.4 °F 11.5 °F 12.2 °F 74% 30.05 in 10.0 mi WNW 5.8 mph - N/A   Scattered Clouds
5:53 AM 19.0 °F 12.3 °F 12.0 °F 74% 30.09 in 10.0 mi NW 4.6 mph - N/A   Partly Cloudy
6:53 AM 17.6 °F 9.3 °F 12.2 °F 79% 30.06 in 10.0 mi WNW 5.8 mph - N/A   Partly Cloudy
7:53 AM 18.0 °F 9.8 °F 10.9 °F 74% 30.12 in 10.0 mi NNW 5.8 mph - N/A   Partly Cloudy
8:53 AM 21.0 °F 16.2 °F 10.9 °F 65% 30.12 in 10.0 mi NW 3.5 mph - N/A   Mostly Cloudy
9:53 AM 24.1 °F 17.0 °F 12.0 °F 60% 30.12 in 10.0 mi NNW 5.8 mph - N/A   Mostly Cloudy
10:53 AM 26.1 °F 17.6 °F 12.9 °F 58% 30.11 in 10.0 mi NNW 8.1 mph - N/A   Mostly Cloudy
11:53 AM 28.0 °F 18.1 °F 14.0 °F 56% 30.09 in 10.0 mi NW 11.5 mph 17.3 mph N/A   Scattered Clouds
12:53 PM 28.0 °F 17.5 °F 14.0 °F 56% 30.08 in 10.0 mi NW 12.7 mph - N/A   Scattered Clouds
1:53 PM 30.0 °F 20.0 °F 12.9 °F 49% 30.06 in 10.0 mi WNW 12.7 mph - N/A   Scattered Clouds
2:53 PM 30.0 °F 22.4 °F 12.9 °F 49% 30.05 in 10.0 mi WNW 8.1 mph - N/A   Scattered Clouds
3:53 PM 32.0 °F 24.8 °F 12.9 °F 45% 30.04 in 10.0 mi West 8.1 mph - N/A   Partly Cloudy
4:53 PM 32.0 °F 24.8 °F 14.0 °F 48% 30.01 in 10.0 mi NW 8.1 mph - N/A   Partly Cloudy
5:53 PM 30.9 °F 23.5 °F 14.0 °F 50% 30.05 in 10.0 mi NW 8.1 mph - N/A   Partly Cloudy
6:53 PM 28.0 °F 18.6 °F 16.0 °F 61% 30.06 in 10.0 mi West 10.4 mph - N/A   Partly Cloudy
7:53 PM 26.1 °F 16.8 °F 16.0 °F 66% 30.08 in 10.0 mi West 9.2 mph - N/A   Clear
8:53 PM 25.0 °F 16.3 °F 14.0 °F 63% 30.09 in 10.0 mi WNW 8.1 mph - N/A   Clear
9:53 PM 24.1 °F 15.2 °F 14.0 °F 65% 30.10 in 10.0 mi NW 8.1 mph - N/A   Clear
10:53 PM 21.9 °F 13.4 °F 14.0 °F 72% 30.10 in 10.0 mi NW 6.9 mph - N/A   Clear
11:53 PM 21.0 °F 13.4 °F 12.9 °F 71% 30.12 in 10.0 mi NW 5.8 mph - N/A   Clear